Regional Weather Roundup
Issued by NWS Binghamton, NY

Home | Current Version | Previous Version | Text Only | Print | Product List | Glossary On
Versions: 1 2 3 4 5 6 7 8 9 10 11 12 13 14 15 16 17 18 19 20 21 22 23 24 25 26 27 28 29 30 31 32 33 34 35 36 37 38 39 40 41 42 43 44 45 46 47 48 49 50
000
ASUS41 KBGM 012310
RWRBGM
RWRBGM
BINGHAMTON REGIONAL WEATHER ROUNDUP
NATIONAL WEATHER SERVICE BINGHAMTON NY
700 PM EDT WED JUL 01 2015

Note: "fair" indicates few or no clouds below 12,000 feet with no
significant weather and/or obstructions to visibility.

* = Station(s) that does not report precipitation, such as rain,
snow, etc, also no thunder or fog.

!NYZ009-015>018-022>025-036-037-044>046-055>057-062-020000
...CENTRAL NEW YORK...

CITY           SKY/WX    TMP DP  RH WIND       PRES   REMARKS
BINGHAMTON     SUNNY     67  56  67 W8        29.84R
CORTLAND       PTSUNNY   70  59  68 W7        29.84S
DANSVILLE      CLOUDY    71  59  65 NW6       29.85R
ELMIRA         SUNNY     72  59  63 NW8       29.82S
ITHACA         PTSUNNY   70  58  65 NW9       29.84S
MONTICELLO     PTSUNNY   70  61  73 W5        29.84R
NORWICH        SUNNY     68  57  68 CALM      29.82S
PENN YAN       MOSUNNY   71  59  65 W10       29.84R
ROME           CLOUDY    68  58  70 W15       29.79R
SIDNEY         SUNNY     70  63  78 NW6       29.82R
SYRACUSE       PTSUNNY   70  57  63 W14       29.79R
$$

!PAZ038>040-043-044-047-048-072-020000
...NORTHEAST PENNSYLVANIA...

CITY           SKY/WX    TMP DP  RH WIND       PRES   REMARKS
HAZLETON       MOSUNNY   72  59  64 W6        29.89S
SCRANTON       PTSUNNY   75  60  59 SW7       29.82R
TOWANDA*       SUNNY     75  55  50 MISG      29.83R
$$
&&
KEY
WCI = WIND CHILL INDEX
VSB = VISIBILITY
HX  = HEAT INDEX
$$


USA.gov is the U.S. government's official web portal to all federal, state and local government web resources and services.